www.pogodaiklimat.ru

Погода и климат >> Архив погоды >> Бельгия >> Ретье


ПОГОДА в Ретье

  • Прогноз погоды в Ретье
  • Монитор погоды в Ретье

АРХИВ ПОГОДЫ в Ретье

Время (UTC), дата Ветер
(напр.,м/с)
 
Видим.   Явления Облачность Т
(С)
Тd
(С)
f
(%)
Тe
(С)
Тes
(С)
Комфортность P
(гПа)
Po
(гПа)
Тmin
(С)
Tmax
(С)
R
(мм)
R24
(мм)
S
(см)
22 19.06 ЮЗ 2 н/о н/о +17.5 +16.7 95 +18 +18 1008.7 1006.0
23 19.06 ЮЗ 2 н/о н/о +17.5 +16.8 96 +18 +18 1009.5 1006.8
00 20.06 З 2
{5}
н/о н/о +17.1 +16.4 96 +17 +17 1009.9 1007.2 0.6 121
01 20.06 ЮЗ 1 н/о н/о +16.9 +16.4 97 +18 +18 1010.0 1007.2
02 20.06 З 2 н/о н/о +16.7 +16.1 96 +17 +17 1010.0 1007.3
03 20.06 ЮЗ 2 н/о н/о +16.5 +15.4 93 +17 +17 1010.5 1007.8
04 20.06 ЮЗ 2 н/о н/о +16.2 +15.0 93 +16 +16 1011.0 1008.3
05 20.06 ЮЗ 2 н/о н/о +15.8 +14.5 92 +16 +16 1011.2 1008.5 15
06 20.06 н/о +15.7 21
07 20.06 ЮЗ 2 н/о н/о +16.1 +14.1 88 +16 +16 1012.1 1009.3 33
08 20.06 ЮЗ 3 н/о н/о +16.6 +13.6 82 +16 +16 1012.2 1009.5 46
09 20.06 ЮЗ 3
{9}
н/о н/о +17.7 +14.5 82 +18 +18 1012.4 1009.7 81
10 20.06 ЮЗ 3 н/о н/о +17.9 +13.9 77 +18 +18 1012.8 1010.1 78
11 20.06 ЮЗ 3 н/о н/о +19.2 +14.6 75 +21 +21 комфорт 1013.0 1010.3 107
12 20.06 ЮЗ 3 н/о н/о +19.9 +13.8 68 +22 +22 комфорт 1013.0 1010.3 143
13 20.06 ЮЗ 3 н/о н/о +21.2 +14.6 66 +24 +24 комфорт 1013.0 1010.3 169
14 20.06 СЗ 3 н/о н/о +20.3 +14.6 70 +23 +23 комфорт 1013.1 1010.4 94
15 20.06 З 2 н/о н/о +20.3 +13.7 66 +23 +23 комфорт 1013.6 1010.9 129
16 20.06 З 4 н/о н/о +18.9 +12.4 66 +20 +20 1013.9 1011.2 41
17 20.06 СЗ 2 н/о н/о +19.4 +13.2 67 +21 +21 комфорт 1014.1 1011.4 81
18 20.06 СЗ 3
{8}
н/о н/о +18.4 +11.5 64 +19 +19 1014.6 1011.9 +21.2 43
19 20.06 СЗ 1 н/о н/о +18.3 +11.4 64 +20 +20 1015.1 1012.3 33
20 20.06 СЗ 2 н/о н/о +17.2 +11.0 67 +18 +18 1015.9 1013.2 9
21 20.06 З 1 н/о н/о +15.2 +10.9 75 +16 +16 1016.4 1013.7
22 20.06 штиль 0 н/о н/о +13.3 +11.7 90 +13 +13 1016.8 1014.0
23 20.06 штиль 0 н/о н/о +12.0 +11.2 95 +11 +11 1017.3 1014.5
00 21.06 штиль 0 н/о н/о +11.1 +11.0 99 +10 +10 1017.5 1014.7 113
01 21.06 штиль 0 н/о н/о +10.4 +9.6 95 +10 +10 1017.7 1014.9
02 21.06 ЮЗ 1 н/о н/о +10.1 +9.0 93 +10 +10 1018.0 1015.2
03 21.06 ЮЗ 1 н/о н/о +9.9 +8.7 92 +9 +9 1018.2 1015.3
04 21.06 ЮЗ 1 н/о н/о +10.3 +9.0 92 +10 +10 1018.3 1015.5
05 21.06 ЮЗ 2 н/о н/о +11.4 +10.0 91 +10 +10 1018.9 1016.1 13
06 21.06 ЮЗ 2
{4}
н/о н/о +12.7 +10.8 88 +12 +12 1019.1 1016.3 +9.8 48
07 21.06 ЮЗ 2 н/о н/о +14.2 +11.9 86 +14 +14 1019.4 1016.7 84
08 21.06 ЮЗ 2 н/о н/о +15.3 +12.1 81 +15 +15 1019.8 1017.0 117
09 21.06 З 2
{5}
н/о н/о +16.4 +11.3 72 +17 +17 1020.0 1017.3 154
10 21.06 ЮЗ 2 н/о н/о +17.7 +11.5 67 +18 +18 1019.9 1017.2 171
11 21.06 ЮЗ 2 н/о н/о +19.3 +12.0 63 +21 +21 комфорт 1020.1 1017.3 219
12 21.06 ЮЗ 2 н/о н/о +19.3 +10.7 57 +21 +21 комфорт 1020.1 1017.4 181
13 21.06 СЗ 3 н/о н/о +18.9 +10.8 59 +20 +20 1020.3 1017.6 146
14 21.06 СЗ 3 н/о н/о +19.3 +10.8 58 +21 +21 комфорт 1020.5 1017.8 119
15 21.06 З 2 н/о н/о +19.4 +10.3 56 +21 +21 комфорт 1020.6 1017.9 111
16 21.06 СЗ 2 н/о н/о +19.4 +9.7 53 +21 +21 комфорт 1020.7 1018.0 155
17 21.06 СЗ 2 н/о н/о +19.3 +9.3 52 +21 +21 комфорт 1020.8 1018.1 80
18 21.06 СЗ 2
{7}
н/о н/о +18.9 +9.5 54 +20 +20 1021.2 1018.5 +20.6 81
19 21.06 СЗ 2 н/о н/о +17.8 +8.9 56 +18 +18 1021.4 1018.7 38
20 21.06 С 2 н/о н/о +15.8 +9.1 64 +16 +16 1021.8 1019.1 5
21 21.06 штиль 0 н/о н/о +13.2 +9.8 80 +13 +13 1022.7 1019.9
22 21.06 штиль 0 н/о н/о +11.9 +10.0 88 +11 +11 1023.2 1020.4
23 21.06 штиль 0 н/о н/о +10.8 +9.7 93 +10 +10 1023.3 1020.4
00 22.06 штиль 0 н/о н/о +10.0 +9.4 96 +9 +9 1023.2 1020.4 173
01 22.06 штиль 0 н/о н/о +9.8 +9.1 95 +9 +9 1023.4 1020.6
02 22.06 штиль 0 н/о н/о +8.9 +8.5 97 +8 +8 1023.0 1020.1
03 22.06 штиль 0 н/о н/о +8.5 +8.2 98 +7 +7 1023.0 1020.1
04 22.06 штиль 0 н/о н/о +8.7 +8.5 99 +8 +8 1022.8 1019.9
05 22.06 С 1 н/о н/о +9.3 +8.9 97 +9 +9 1023.0 1020.1 9
06 22.06 СВ 1
{3}
н/о н/о +12.4 +11.1 92 +12 +12 1022.8 1020.0 +8.4 47
07 22.06 СВ 1 н/о н/о +15.0 +12.1 83 +16 +16 1022.8 1020.0 91
08 22.06 С 2 н/о н/о +16.9 +12.7 76 +17 +17 1022.6 1019.9 132
09 22.06 СВ 2
{4}
н/о н/о +19.0 +13.0 68 +21 +21 комфорт 1022.4 1019.7 179
10 22.06 С 2 н/о н/о +20.2 +12.6 62 +23 +23 комфорт 1022.1 1019.4 221
11 22.06 СВ 3 н/о н/о +21.2 +12.5 58 +23 +23 комфорт 1021.8 1019.1 244
12 22.06 СВ 2 н/о н/о +21.5 +12.4 56 +24 +24 комфорт 1021.0 1018.3 206
13 22.06 СВ 3 н/о н/о +22.1 +11.8 52 +24 +24 комфорт 1020.6 1017.9 194
14 22.06 В 2 н/о н/о +22.6 +12.1 51 +25 +25 комфорт 1020.3 1017.6 197
15 22.06 С 2 н/о н/о +23.7 +11.9 48 +25 +25 комфорт 1019.8 1017.1 184
16 22.06 СВ 2 н/о н/о +22.9 +12.3 51 +26 +26 жарко 1019.4 1016.7 125
17 22.06 В 2 н/о н/о +22.8 +11.7 50 +25 +25 комфорт 1019.0 1016.3 104
18 22.06 СВ 2
{6}
н/о н/о +23.0 +12.2 51 +26 +26 жарко 1018.8 1016.2 +23.7 80
19 22.06 СВ 1 н/о н/о +22.1 +12.6 55 +25 +25 комфорт 1018.6 1015.9 36
20 22.06 С 1 н/о н/о +20.0 +13.2 65 +23 +23 комфорт 1019.1 1016.4 5
21 22.06 СЗ 1 н/о н/о +17.1 +13.8 81 +18 +18 1019.6 1016.8
22 22.06 СЗ 1 н/о н/о +15.5 +13.1 86 +16 +16 1019.9 1017.1
23 22.06 С 1 н/о н/о +16.3 +12.7 79 +17 +17 1019.6 1016.9
00 23.06 С 1 н/о н/о +16.1 +12.6 80 +17 +17 1019.4 1016.6 206
01 23.06 СВ 1 н/о н/о +14.8 +12.4 86 +15 +15 1019.2 1016.4
02 23.06 С 1 н/о н/о +14.3 +12.4 88 +15 +15 1019.4 1016.7
03 23.06 штиль 0 н/о н/о +12.9 +12.0 94 +12 +12 1019.4 1016.6
04 23.06 СВ 1 н/о н/о +12.7 +12.0 96 +13 +13 1019.0 1016.2
05 23.06 СВ 1 н/о н/о +14.4 +13.0 91 +15 +15 1019.1 1016.3 15
06 23.06 СВ 1
{2}
н/о н/о +17.7 +14.3 80 +19 +19 1019.4 1016.7 +12.7 48
07 23.06 В 2 н/о н/о +19.9 +15.4 75 +23 +23 комфорт 1019.3 1016.6 92
08 23.06 В 2 н/о н/о +22.4 +16.4 69 +27 +27 душно 1019.1 1016.4 136
09 23.06 В 3
{5}
н/о н/о +23.9 +16.8 64 +27 +27 жарко 1018.6 1015.9 181
10 23.06 СВ 3 н/о н/о +25.6 +16.4 57 +29 +29 душно 1018.3 1015.7 218
11 23.06 В 4 н/о н/о +26.5 +15.8 52 +30 +30 душно 1018.1 1015.4 221
12 23.06 В 5 н/о н/о +27.3 +15.6 49 +30 +30 душно 1017.6 1015.0 250
13 23.06 В 4 н/о н/о +27.8 +16.8 51 +31 +31 душно 1017.4 1014.7 253
14 23.06 В 4 н/о н/о +28.1 +16.8 50 +32 +32 душно 1017.0 1014.4 242
15 23.06 ЮВ 4 н/о н/о +28.3 +16.9 50 +32 +32 душно 1016.7 1014.1 197
16 23.06 В 4 н/о н/о +27.8 +16.5 50 +31 +31 душно 1016.5 1013.9 134
17 23.06 В 4 н/о н/о +27.5 +16.8 52 +31 +31 душно 1016.4 1013.8 78
18 23.06 В 3
{9}
н/о н/о +26.9 +17.2 55 +31 +31 душно 1016.3 1013.6 +28.3 43
19 23.06 В 3 н/о н/о +26.0 +16.7 57 +30 +30 душно 1016.3 1013.6 27
20 23.06 ЮВ 1 н/о н/о +24.2 +16.8 63 +28 +28 душно 1016.9 1014.2 5
21 23.06 В 1 н/о н/о +22.6 +17.1 71 +27 +27 душно 1017.5 1014.8
22 23.06 В 1 н/о н/о +21.1 +17.9 82 +25 +25 комфорт 1017.6 1014.9
23 23.06 В 2 н/о н/о +21.3 +17.0 76 +25 +25 комфорт 1017.6 1014.9
00 24.06 В 1 н/о н/о +19.9 +16.6 81 +24 +24 комфорт 1018.1 1015.3 214
01 24.06 В 2 н/о н/о +20.3 +16.7 80 +24 +24 комфорт 1018.2 1015.5
02 24.06 В 3 н/о н/о +20.1 +16.3 79 +23 +23 комфорт 1017.9 1015.2
03 24.06 В 3 н/о н/о +20.1 +16.0 77 +23 +23 комфорт 1017.9 1015.2
04 24.06 В 3 н/о н/о +19.8 +15.7 77 +22 +22 комфорт 1017.9 1015.2
05 24.06 В 2 н/о н/о +19.8 +15.9 78 +23 +23 комфорт 1017.9 1015.2 8
06 24.06 н/о н/о +22.4 +17.1 72 1017.9 1015.2 +19.5 3
07 24.06 н/о
09 24.06 н/о
10 24.06 н/о н/о +27.9 +18.2 56 1018.0 1015.4 206
11 24.06 ЮВ 4 н/о н/о +28.7 +18.3 53 +33 +33 очень
душно
1017.7 1015.1 236
12 24.06 Ю 4 н/о н/о +29.5 +17.7 49 +34 +34 очень
душно
1017.2 1014.6 257
13 24.06 ЮВ 2 н/о н/о +30.0 +17.6 47 +34 +34 очень
душно
1017.5 1014.9 242
14 24.06 ЮВ 2 н/о н/о +30.4 +17.9 47 +35 +35 очень
душно
1017.3 1014.7 227
15 24.06 Ю 2 н/о н/о +30.8 +17.2 44 +35 +35 очень
душно
1017.3 1014.7 200
16 24.06 З 1 н/о н/о +31.3 +17.4 43 +35 +35 очень
душно
1017.3 1014.7 161
17 24.06 З 1 н/о н/о +30.5 +18.1 48 +35 +35 очень
душно
1017.3 1014.7 104
18 24.06 штиль 0
{6}
н/о н/о +29.4 +19.0 54 +35 +35 очень
душно
1016.8 1014.2 +31.3 45
19 24.06 штиль 0 н/о н/о +27.2 +20.4 66 +34 +34 очень
душно
1016.9 1014.3 23
20 24.06 штиль 0 н/о н/о +25.5 +20.8 75 +32 +32 очень
душно
1017.3 1014.6 7
21 24.06 штиль 0 н/о н/о +22.9 +19.9 83 +30 +30 очень
душно
1017.3 1014.6
22 24.06 штиль 0 н/о н/о +21.6 +19.1 86 +27 +27 душно 1017.3 1014.6
23 24.06 СВ 1 н/о н/о +21.6 +19.6 88 +27 +27 душно 1017.1 1014.4
00 25.06 штиль 0 н/о н/о +21.0 +18.8 87 +25 +25 комфорт 1016.8 1014.1 218
01 25.06 В 2 н/о н/о +21.9 +18.4 81 +27 +27 душно 1016.6 1014.0
02 25.06 В 3 н/о н/о +21.9 +18.0 79 +27 +27 душно 1016.3 1013.7
03 25.06 В 1 н/о н/о +21.2 +17.7 80 +25 +25 комфорт 1016.0 1013.3
04 25.06 В 1 н/о н/о +21.0 +18.2 84 +26 +26 душно 1016.1 1013.4
05 25.06 В 2 н/о н/о +21.8 +18.4 81 +27 +27 душно 1016.2 1013.5 8
06 25.06 В 2
{4}
н/о н/о +22.4 +18.7 80 +28 +28 душно 1016.1 1013.4 +20.4 19
07 25.06 В 2 н/о н/о +24.1 +19.0 73 +29 +29 душно 1015.8 1013.2 54
08 25.06 ЮВ 3 н/о н/о +26.4 +19.1 64 +32 +32 очень
душно
1016.0 1013.4 137
09 25.06 ЮВ 2
{5}
н/о н/о +28.0 +20.1 62 +34 +34 очень
душно
1015.8 1013.2 180
10 25.06 ЮВ 3 н/о н/о +29.5 +20.3 58 +36 +36 очень
душно
1016.1 1013.5 217
11 25.06 ЮВ 4 н/о н/о +30.7 +20.9 56 +38 +38 очень
душно
1016.0 1013.4 216
12 25.06 Ю 3 н/о н/о +31.9 +20.1 50 +38 +38 очень
душно
1016.1 1013.5 226
13 25.06 Ю 3 н/о н/о +32.5 +20.8 50 +40 +40 очень
душно
1016.2 1013.6 217
14 25.06 ЮЗ 4 н/о н/о +33.5 +19.3 43 +39 +39 очень
душно
1016.2 1013.7 211
15 25.06 ЮЗ 3 н/о н/о +34.0 +19.0 41 +39 +39 очень
душно
1016.5 1013.9 184
16 25.06 ЮЗ 3 н/о н/о +33.7 +19.5 43 +39 +39 очень
душно
1016.8 1014.3 165
17 25.06 ЮЗ 3 н/о н/о +33.2 +19.7 45 +39 +39 очень
душно
1017.1 1014.5 121
18 25.06 ЮЗ 2
{7}
н/о н/о +32.2 +19.6 47 +38 +38 очень
душно
1017.7 1015.1 +34.1 75
19 25.06 З 2 н/о н/о +30.8 +20.1 53 +37 +37 очень
душно
1018.3 1015.7 38
20 25.06 СЗ 3 н/о н/о +26.7 +20.7 70 +33 +33 очень
душно
1019.4 1016.7 7
21 25.06 СЗ 2 н/о н/о +24.8 +20.1 75 +30 +30 душно 1020.4 1017.7
22 25.06 З 1 н/о н/о +23.5 +19.5 78 +29 +29 душно 1021.0 1018.3
23 25.06 З 1 н/о н/о +22.0 +18.5 81 +27 +27 душно 1021.3 1018.6
00 26.06 З 1 н/о н/о +20.2 +18.0 87 +25 +25 комфорт 1021.4 1018.7 208
01 26.06 З 1 н/о н/о +19.2 +17.4 89 +22 +22 комфорт 1022.0 1019.3
02 26.06 З 1 н/о н/о +18.0 +16.7 92 +19 +19 1022.3 1019.5
03 26.06 З 1 н/о н/о +17.4 +16.5 94 +18 +18 1022.8 1020.0
04 26.06 З 2 н/о н/о +17.6 +16.7 94 +18 +18 1023.5 1020.7
05 26.06 З 1 н/о н/о +17.7 +16.8 94 +19 +19 1024.0 1021.2 4
06 26.06 СЗ 2
{4}
н/о н/о +17.6 +16.4 93 +18 +18 1024.6 1021.8 +17.2 15
07 26.06 СЗ 2 н/о н/о +18.0 +16.5 91 +19 +19 1024.9 1022.2 32
08 26.06 СЗ 2 н/о н/о +18.4 +16.8 90 +20 +20 1025.8 1023.0 47
09 26.06 СЗ 2
{4}
н/о н/о +19.4 +17.0 86 +22 +22 комфорт 1025.9 1023.1 60
10 26.06 СЗ 2 н/о н/о +20.8 +17.6 82 +25 +25 комфорт 1026.1 1023.4 88
11 26.06 СЗ 2 н/о н/о +22.2 +17.9 77 +27 +27 душно 1026.2 1023.5 145
12 26.06 С 3 н/о н/о +23.8 +18.5 72 +28 +28 душно 1025.9 1023.3 208
13 26.06 С 2 н/о н/о +25.1 +18.7 68 +30 +30 душно 1026.3 1023.6 236
14 26.06 н/о н/о +25.7 +18.9 66 1025.7 1023.0 227
15 26.06 С 2 н/о н/о +26.5 +18.9 63 +32 +32 очень
душно
1025.3 1022.7 196
16 26.06 С 3 н/о н/о +26.3 +18.3 61 +31 +31 душно 1025.3 1022.7 163
17 26.06 С 3 н/о н/о +25.1 +17.9 64 +29 +29 душно 1025.2 1022.5 122
18 26.06 С 3
{8}
н/о н/о +24.3 +16.3 61 +27 +27 жарко 1025.3 1022.7 +26.7 79
19 26.06 н/о н/о +22.6 +14.9 62 1025.7 1023.0 36
20 26.06 н/о н/о +21.2 +14.5 66 1026.3 1023.6 6
21 26.06 н/о н/о +19.4 +15.4 78 1026.8 1024.1
22 26.06 С 2 н/о н/о +18.1 +15.1 83 +19 +19 1027.6 1024.8
23 26.06 С 2 н/о н/о +17.1 +14.6 85 +17 +17 1027.9 1025.2

 

Местоположение метеостанции Ретье (Бельгия): широта 51.22 долгота 5.03 высота над уровнем моря 19 м.

В архиве по умолчанию представлена погода в Ретье за последнюю неделю. Архивные данные за месяц целиком и за предыдущие месяцы, начиная с января 2011 года, Вы можете получить, выбрав интересующий диапазон дат из раскрывающегося списка и нажав кнопку "Ввод!".


*Определитесь, кто Вы:
робот инопланетянин человек

Внимание! Время в таблицах - всемирное. Для получения местного времени необходимо прибавить поправку, которая равна 1 ч.

Смотрите также архив погоды в соседних городах и на ближайших метеорологических станциях:

Погода в Шаффене (Бельгия) (25 км)
Погода в Кляйн-Брогеле (Бельгия) (31 км)
Погода в Эйндховене (Нидерланды) (37 км)
Погода в Антверпене (Бельгия) (39 км)
Погода в Гилзе-эн-Рейене (Нидерланды) (40 км)
Погода в Дипенбеке (Бельгия) (44 км)
Погода в Брюсселе (Бельгия) (50 км)
Погода в Элле (Нидерланды) (52 км)
Погода в Вунстдрехте (Нидерланды) (55 км)
Погода в Бовешене (Бельгия) (55 км)

Пояснения к столбцам:

Ветер - указаны скорость ветра в м/с - средняя за 10 мин, порывы в срок и между сроками (в фигурных скобках) и направление, откуда дует ветер: С - северный, СВ - северо-восточный, В - восточный, ЮВ - юго-восточный, Ю - южный, ЮЗ - юго-западный, З - западный, СЗ - северо-западный.
Видимость - горизонтальная дальность видимости в метрах или километрах. При видимости от 1 до 10 км при отсутствии осадков обычно наблюдается дымка, при ухудшении видимости до 1 км и менее - туман. В сухую погоду видимость может ухудшаться дымом, пылью или мглою.
Явления - указаны атмосферные явления, наблюдавшиеся в срок или в последний час перед сроком; фигурными скобками обозначены явления, наблюдавшиеся между сроками (за 1-3 часа до срока); квадратными скобками обозначены град или гололедные отложения с указанием их диаметра в мм.
Облачность - указаны через наклонную черту общая и нижняя облачность в баллах и высота нижней границы облаков в метрах; квадратными скобками обозначены формы облаков: Ci - перистые, Cs - перисто-слоистые, Cc - перисто-кучевые, Ac - высококучевые, As - высокослоистые, Sc - слоисто-кучевые, Ns - слоисто-дождевые, Cu - кучевые, Cb - кучево-дождевые. Подробнее классификацию облаков см. в Атласе облаков (PDF).
T - Температура воздуха - температура, измеренная на высоте 2 м над землей.
Td - Температура точки росы - температура, при понижении до которой содержащийся в воздухе водяной пар достигнет насыщения.
f - Относительная влажность воздуха - влажноcть воздуха, измеренная на высоте 2 м над землей.
Te - Эффективная температура - температура, которую ощущает одетый по сезону человек в тени. Характеристика душности погоды. При расчете учитывается влияние влажности воздуха и скорости ветра на теплоощущения человека.
Tes - Эффективная температура на солнце - температура, которую ощущает человек, с поправкой на солнечный нагрев. Характеристика знойности погоды. Зависит от высоты солнца над горизонтом, облачности и скорости ветра. Ночью, в пасмурную погоду, а также при ветре 12 м/с и более поправка равна нулю.
P - Атмосферное давление - приведенное к уровню моря атмосферное давление.
Po - Атмосферное давление - измеренное на уровне метеостанции атмосферное давление.
Tmin - Минимальная температура - минимум температуры воздуха на высоте 2 м над землей.
Tmax - Максимальная температура - максимум температуры воздуха на высоте 2 м над землей.
R - Количество осадков - Количество выпавших осадков за период времени, мм. При наведении курсора мыши на число - период времени, за который выпало указанное количество осадков.
R24 - Количество осадков - Количество выпавших осадков за 24 часа, мм.
S - Снежный покров - Высота снежного покрова, см. При наведении курсора мыши на число - состояние снежного покрова и степень покрытия местности в баллах.